Home   Weather   Flensburg   Past weeks

Flag for Germany Past Weather in Flensburg, Schleswig-Holstein, Germany — Yesterday and Last 2 Weeks

Now
41 °F

Passing clouds.


Feels Like: 37 °F
Forecast: 35 / 43 °F
Wind: 6 mph from Southwest

Location: Soenderborg Lufthavn

Current Time: Dec 4, 2016 at 7:37:56 pm

Latest Report: Dec 4, 2016 at 7:20 pm


Visibility: N/A

Pressure: 30.36 "Hg

Humidity: 87%

Dew Point: 37 °F

Location of FlensburgLocation

Past Weather in Flensburg — Graph

°F

Flensburg Temperature Yesterday

Maximum temperature yesterday: 39 °F (at 1:50 pm)
Minimum temperature yesterday: 27 °F (at 5:50 am)
Average temperature yesterday: 34 °F

High & Low Weather Summary for the Past Weeks

 TemperatureHumidityPressure
High55 °F (Nov 22, 12:20 pm)100% (Nov 24, 11:50 pm)30.54 "Hg (Nov 24, 11:50 pm)
Low27 °F (Dec 3, 5:50 am)57% (Nov 27, 1:20 pm)29.21 "Hg (Nov 20, 5:20 pm)
Average42 °F83%30.07 "Hg
* Reported Nov 19 6:20 pm — Dec 4 6:20 pm, Flensburg, Weather by CustomWeather, © 2016

Note: Actual official high and low records may vary slightly from our data, if they occured in-between our weather recording intervals... More about our weather records

Advertising

Flensburg Weather History for the Previous 24 Hours

Scroll right to see more
 ConditionsComfort  
Time TempWeatherWind HumidityBarometerVisibility
6:20 pm
Sun, Dec 4
39 °FPassing clouds.6 mph93%30.36 "HgN/A
5:50 pm41 °FPassing clouds.8 mph87%30.36 "HgN/A
5:20 pm41 °FPassing clouds.7 mph81%30.36 "HgN/A
4:50 pm41 °FPassing clouds.5 mph81%30.36 "HgN/A
4:20 pm41 °FPassing clouds.7 mph81%30.36 "HgN/A
3:50 pm43 °FPartly sunny.7 mph76%30.36 "HgN/A
3:20 pm43 °FPartly sunny.7 mph76%30.36 "HgN/A
2:50 pm43 °FPartly sunny.6 mph81%30.36 "HgN/A
2:20 pm43 °FPartly sunny.6 mph81%30.36 "HgN/A
1:50 pm43 °FPartly sunny.6 mph81%30.36 "HgN/A
1:20 pm43 °FPartly sunny.7 mph81%30.36 "HgN/A
12:50 pm43 °FPartly sunny.7 mph81%30.36 "HgN/A
12:20 pm43 °FPartly sunny.7 mph81%30.36 "HgN/A
11:50 am41 °FPartly sunny.7 mph81%30.36 "HgN/A
11:20 am41 °FPartly sunny.7 mph81%30.36 "HgN/A
10:50 am41 °FPartly sunny.7 mph81%30.36 "HgN/A
10:20 am39 °FPartly sunny.8 mph87%30.36 "HgN/A
9:20 am39 °FChilly.8 mph87%30.36 "HgN/A
8:50 am37 °FPartly sunny.8 mph93%30.36 "HgN/A
8:20 am37 °FPassing clouds.7 mph93%30.33 "HgN/A
7:50 am37 °FPassing clouds.7 mph93%30.33 "HgN/A
7:20 am37 °FPassing clouds.7 mph93%30.33 "HgN/A
6:50 am37 °FPassing clouds.6 mph93%30.33 "HgN/A
6:20 am37 °FPassing clouds.7 mph93%30.33 "HgN/A
5:50 am37 °FPassing clouds.7 mph93%30.33 "HgN/A
5:20 am37 °FPassing clouds.7 mph93%30.33 "HgN/A
4:50 am37 °FPassing clouds.7 mph93%30.33 "HgN/A
4:20 am37 °FPassing clouds.8 mph93%30.33 "HgN/A
3:50 am37 °FPassing clouds.8 mph93%30.33 "HgN/A
3:20 am37 °FChilly.7 mph93%30.33 "HgN/A
2:50 am37 °FPassing clouds.8 mph93%30.33 "HgN/A
2:20 am37 °FPassing clouds.7 mph93%30.33 "HgN/A
1:50 am37 °FPassing clouds.7 mph87%30.33 "HgN/A
1:20 am37 °FPassing clouds.8 mph87%30.30 "HgN/A
12:50 am37 °FPassing clouds.8 mph87%30.30 "HgN/A
12:20 am39 °FPassing clouds.7 mph81%30.33 "HgN/A
11:50 pm
Sat, Dec 3
39 °FOvercast.7 mph81%30.33 "HgN/A
11:20 pm39 °FPassing clouds.7 mph81%30.30 "HgN/A
10:50 pm39 °FPassing clouds.7 mph81%30.30 "HgN/A
10:20 pm39 °FPassing clouds.7 mph81%30.30 "HgN/A
9:50 pm39 °FOvercast.6 mph81%30.30 "HgN/A
9:20 pm37 °FPassing clouds.7 mph81%30.30 "HgN/A
8:50 pm37 °FPassing clouds.8 mph81%30.30 "HgN/A
8:20 pm37 °FPassing clouds.8 mph81%30.30 "HgN/A
7:50 pm37 °FPassing clouds.5 mph81%30.30 "HgN/A
7:20 pm37 °FPassing clouds.7 mph81%30.30 "HgN/A
Weather by CustomWeather, © 2016

See weather overviewHow to use our weather pages